Regional Weather Roundup
Issued by NWS Cleveland, OH

Home | Current Version | Previous Version | Graphics & Text | Print | Product List | Glossary On
Versions: 1 2 3 4 5 6 7 8 9 10 11 12 13 14 15 16 17 18 19 20 21 22 23 24 25 26 27 28 29 30 31 32 33 34 35 36 37 38 39 40 41 42 43 44 45 46 47 48 49 50
000
ASUS41 KCLE 211302
RWRCLE
OHIO REGIONAL WEATHER ROUNDUP
NATIONAL WEATHER SERVICE CLEVELAND, OH
800 AM EST FRI NOV 21 2014

NOTE: "FAIR" INDICATES FEW OR NO CLOUDS BELOW 12,000 FEET WITH NO
SIGNIFICANT WEATHER AND/OR OBSTRUCTIONS TO VISIBILITY.

OHZ001>008-015>018-024>027-034-035-043-044-211400-
   NORTHWEST OHIO

CITY           SKY/WX    TMP DP  RH WIND       PRES   REMARKS
DEFIANCE       CLEAR     11   5  77 CALM      30.43R
FINDLAY        PTCLDY    10   5  80 SW3       30.42R
TOLEDO EXPRESS MOCLDY    16  11  80 W3        30.42R
TOLEDO EXEC    CLOUDY    20  11  68 W7        30.44R WCI  11
LIMA           PTCLDY    11   4  73 S3        30.41R
$$

OHZ009>014-019>023-028>033-038-089-211400-
   NORTHEAST OHIO

CITY           SKY/WX    TMP DP  RH WIND       PRES   REMARKS
CLE-HOPKINS    CLOUDY    21   8  57 W9        30.41R WCI  11
CLE-LAKEFRONT  MOCLDY    24  10  55 W16G26    30.39R WCI  11
CUY CO. ARPT   CLOUDY    25  12  58 NW14G23   30.36R WCI  13
LORAIN-ELYRIA  CLOUDY    19  11  70 W9        30.40R WCI   8
ASHTABULA      CLOUDY    20  13  74 W5        30.35R WCI  13
AKRON-CANTON   PTCLDY    16  10  77 W6        30.37R WCI   7
WOOSTER        PTCLDY    10   5  80 W6        30.39R WCI   0
MANSFIELD      CLOUDY    13   7  77 SW6       30.38R WCI   4
YOUNGSTOWN     LGT SNOW  18  15  88 W8        30.34R FOG     WCI   8
$$

OHZ042-051>053-060>062-070>072-077>081-211400-
  SOUTHWEST OHIO

CITY           SKY/WX    TMP DP  RH WIND       PRES   REMARKS
CINC-COVINGTON CLEAR     14   7  73 CALM      30.45R
CINC-LUNKEN    CLEAR     15  10  80 NE3       30.50R
HAMILTON       PTCLDY     8   5  87 CALM      30.48R
DAYTON         PTCLDY    13   6  74 NW3       30.44R
WRIGHT-PAT AFB PTCLDY    11   5  74 W2        30.45R
DAYTON GENERAL PTCLDY    13   6  74 CALM      30.44R
WILMINGTON     PTCLDY     9   5  84 CALM      30.44R
$$

OHZ036-037-039>041-045>050-054>059-063>069-073>076-082>088-211400-
  CENTRAL AND SOUTHEAST OHIO

CITY           SKY/WX    TMP DP  RH WIND       PRES   REMARKS
COLUMBUS       PTCLDY    16   6  65 VRB3      30.45R
OSU AIRPORT    PTCLDY    12   5  73 W6        30.43R WCI   3
BOLTON FIELD   CLEAR     12   7  79 S3        30.44R
RICKENBACK AFB NOT AVBL
NEWARK         CLEAR     10   5  80 CALM      30.43R
MARION         PTCLDY    13   5  70 W5        30.42R WCI   5
LANCASTER      PTCLDY     9   5  84 CALM      30.45R
ZANESVILLE     CLEAR     14   8  77 SW3       30.43R
NEW PHILLY     CLEAR     12   8  84 CALM      30.42R FOG
$$



USA.gov is the U.S. government's official web portal to all federal, state and local government web resources and services.